METEOR 2-7 DEB, 28389

Orbit data source: Space-Track

METEOR 2-7 DEB, 28389 is space debris in LEO originally from a launch on Thu, 14 May 1981 UTC launched from the Plesetsk Missile And Space Complex (PKMTR). Debris objects in space refer to the collection of defunct objects orbiting the Earth. Examples of debris include non-operational satellites, rocket bodies, and fragments generated from explosions, collisions, or faulty payload assembly.

Loading next visibility...
METEOR 2-7 DEB details
Identifier
28389, 1981-043F
Orbit
LEO
Last TLE update13 hours ago
Origin
Flag of CISKVR (CIS)
ManufacturerUnknown
MissionSpacecraft
Bus & MotorUnknown
MassUnknown
Launch date (UTC)
1981-05-14 (44 years ago)
Launch vehicleUnknown
Launch site
Plesetsk Missile And Space Complex (PKMTR)
Object type
Payload
Rocket body
Debris
Shape & HBRUnknown
Radar Cross SectionSmall (<0.1 m²)

Expand to show TLE details & history

TLE from 13 hours ago
0 METEOR 2-7 DEB
1 28389U 81043F   24361.04944041  .00034773  00000-0  90396-2 0  9991
2 28389  81.2632 121.6209 0036716 190.0466 169.9997 14.49055797 49671
Epoch: 2024-12-26T01:11Z
Definitive object data (Epoch: 2024-12-26T01:11:11.651Z)
Latitude-0.00004°
Longitude8.78793°
Altitude757.393 km
Speed7.462 km/s
True Right ascension08h 06m 29s
True Declination0° 00' 00"
Sunlit
Object was in full shadow at TLE epoch
Visualization TLE readout
Latitude42.48927°
Longitude16.25653°
Altitude756.271 km
Speed7.469 km/s
Apparent Right ascension05h 28m 08s
Apparent Declination6° 15' 57"
Sunlit
Object is in full shadow
Visualization observer readout
Local Sidereal Time14:00:27
Azimuth301.37° NW
Elevation-23.588°
Doppler factor1
Orbital elements
Apogee altitude751.938 km
Perigee altitude699.772 km
Semi-major axis7,103.992 km
Eccentricity0.0036716
Inclination81.2632°
RAAN121.6209°
Arg. of periapsis190.0466°
True anomaly170.07243°
Mean anomaly169.9997°
Eccentric anomaly170.0361°
Mean motion3.62485 °/min
BSTAR0.0090396
Orbital period99.31 mins
Loading maneuver chart data...
Loading historical data...
Loading historical data...
Loading historical data...
Loading historical data...
Loading historical data...
Loading historical data...
Loading historical data...

METEOR 2-7 DEB Visibility forecast

Observer location: undefined°, undefined

Span
Click to sort rows by Start time (UTC) header in descending order
Start Az.
Max El. time (UTC)
Max El. Az.
Max El.
End time (UTC)
End Az.
8 mins2024-12-26 19:59:34.696Z355.304° N2024-12-26 20:03:34.696Z94.707° ESE44.106°2024-12-26 20:07:34.696Z165.64° S
8 mins2024-12-27 08:47:34.696Z174.933° S2024-12-27 08:51:34.696Z89.514° E42.36°2024-12-27 08:55:34.696Z16.961° NNE
|